Voltar ao catálogo

UWE-2

AtivoCiênciaSSO
NORAD 35934·PAYLOAD·🇩🇪 Germany

Lançado Sep 23, 2009 de Satish Dhawan Space Centre

Loading…

Próximas Passagens (próximas 24 horas)

TLE

AtualizadoSource: Space-Track

Época: Sep 14, 2026, 11:13 UTC

1 35934U 09051D   26257.46797781  .00000470  00000-0  10745-3 0  9991
2 35934  98.3921 162.1309 0005589 339.7149  20.3828 14.60269126901889

Acompanhe UWE-2 em tempo real com AllMySat

Download on the App Store